TimeEDT,TemperatureF,Dew PointF,Humidity,Sea Level PressureIn,VisibilityMPH,Wind Direction,Wind SpeedMPH,Gust SpeedMPH,PrecipitationIn,Events,Conditions,WindDirDegrees,DateUTC
12:54 AM,42.1,26.1,53,30.22,10.0,NNW,3.5,-,N/A,,Overcast,340,2013-03-30 04:54:00
1:54 AM,41.0,25.0,53,30.23,10.0,NW,3.5,-,N/A,,Scattered Clouds,320,2013-03-30 05:54:00
2:54 AM,39.9,27.0,60,30.23,10.0,NW,6.9,-,N/A,,Scattered Clouds,320,2013-03-30 06:54:00
3:54 AM,39.9,26.1,58,30.22,10.0,NNW,3.5,-,N/A,,Clear,330,2013-03-30 07:54:00
4:54 AM,37.9,25.0,60,30.22,10.0,NNE,5.8,-,N/A,,Clear,20,2013-03-30 08:54:00
5:54 AM,39.0,26.1,60,30.22,10.0,NNW,4.6,-,N/A,,Clear,330,2013-03-30 09:54:00
6:54 AM,36.0,26.1,67,30.24,10.0,Calm,Calm,-,N/A,,Scattered Clouds,0,2013-03-30 10:54:00
7:54 AM,36.0,26.1,67,30.25,10.0,Calm,Calm,-,N/A,,Partly Cloudy,0,2013-03-30 11:54:00
8:54 AM,43.0,30.0,60,30.27,10.0,WNW,3.5,-,N/A,,Partly Cloudy,290,2013-03-30 12:54:00
9:54 AM,48.0,32.0,54,30.27,10.0,WSW,6.9,-,N/A,,Partly Cloudy,250,2013-03-30 13:54:00
10:54 AM,50.0,30.0,46,30.26,10.0,Calm,Calm,-,N/A,,Partly Cloudy,0,2013-03-30 14:54:00
11:54 AM,55.0,27.0,34,30.22,10.0,SE,4.6,-,N/A,,Partly Cloudy,130,2013-03-30 15:54:00
12:54 PM,57.9,27.0,31,30.19,10.0,South,10.4,-,N/A,,Partly Cloudy,190,2013-03-30 16:54:00
1:54 PM,61.0,25.0,25,30.14,10.0,Variable,4.6,-,N/A,,Partly Cloudy,0,2013-03-30 17:54:00
2:54 PM,61.0,24.1,24,30.14,10.0,Calm,Calm,-,N/A,,Partly Cloudy,0,2013-03-30 18:54:00
3:54 PM,63.0,25.0,24,30.11,10.0,Variable,3.5,-,N/A,,Partly Cloudy,0,2013-03-30 19:54:00
4:54 PM,63.0,24.1,23,30.09,10.0,NE,4.6,-,N/A,,Partly Cloudy,50,2013-03-30 20:54:00
5:54 PM,64.0,25.0,23,30.08,10.0,Calm,Calm,-,N/A,,Partly Cloudy,0,2013-03-30 21:54:00
6:54 PM,62.1,25.0,24,30.08,10.0,East,5.8,-,N/A,,Clear,90,2013-03-30 22:54:00
7:54 PM,57.9,24.1,27,30.10,10.0,SE,8.1,-,N/A,,Clear,130,2013-03-30 23:54:00
8:54 PM,57.0,25.0,29,30.10,10.0,ESE,8.1,-,N/A,,Clear,110,2013-03-31 00:54:00
9:54 PM,55.0,25.0,31,30.09,10.0,ESE,5.8,-,N/A,,Clear,120,2013-03-31 01:54:00
10:54 PM,54.0,26.1,34,30.09,10.0,ESE,6.9,-,N/A,,Clear,110,2013-03-31 02:54:00
11:54 PM,53.1,25.0,34,30.08,10.0,Calm,Calm,-,N/A,,Clear,0,2013-03-31 03:54:00